Regional Weather Roundup
Issued by NWS Charleston, SC

Current Version | Previous Version | Text Only | Print | Product List | Glossary On
Versions: 1 2 3 4 5 6 7 8 9 10 11 12 13 14 15 16 17 18 19 20 21 22 23 24 25 26 27 28 29 30 31 32 33 34 35 36 37 38 39 40 41 42 43 44 45 46 47 48 49 50
000
ASUS42 KCHS 261728
RWRCHS

REGIONAL WEATHER ROUNDUP
NATIONAL WEATHER SERVICE CHARLESTON SC
100 PM EDT THU MAY 26 2016

NOTE: "FAIR" INDICATES FEW OR NO CLOUDS BELOW 12,000 FEET WITH NO
SIGNIFICANT WEATHER AND/OR OBSTRUCTIONS TO VISIBILITY.

NOT ALL STATIONS ARE QUALITY CONTROLLED. USE DATA WITH CAUTION...
ESPECIALLY DEWPOINT OBSERVATIONS.

SCZ027-030-031-034>040-042>050-261800-
...SOUTHEAST SOUTH CAROLINA...

CITY           SKY/WX    TMP DP  RH WIND       PRES   REMARKS
N CHARLESTON   MOSUNNY   83  61  47 S5        30.19F
WATERFRONT PRK   N/A     78  67  69 S8        30.18F
MOUNT PLEASANT FAIR      82  66  57 S10       30.20S
JOHNS ISLAND   FAIR      81  66  61 SE7       30.20F
PINOPOLIS        N/A     86  64  48 VRB2      30.12S
MONCKS CORNER  FAIR      82  54  36 SW7       30.18S
SUMMERVILLE    FAIR      86  63  45 S5        30.19F
BEAUFORT MCAS  MOSUNNY   85  66  53 VRB5      30.19F
BEAUFORT ARPT  FAIR      82  64  54 SE7       30.19F
HILTON HEAD IS MOSUNNY   86  66  51 SE3       30.22S
WALTERBORO     PTSUNNY   86  63  45 S7        30.19F
ALLENDALE      PTSUNNY   84  63  48 CALM      30.17F

...SOUTHERN MIDLANDS AND PEE DEE...

CITY           SKY/WX    TMP DP  RH WIND       PRES   REMARKS
GEORGETOWN     CLOUDY    79  63  57 S6        30.20F
KINGSTREE      FAIR      84  61  45 S7        30.17F
ORANGEBURG     SUNNY     86  62  44 MISG      30.18F
BARNWELL       PTSUNNY   88  64  45 CALM      30.18F
AIKEN          FAIR      84  59  42 S7G18     30.21F
MANNING        FAIR      82  63  51 SW6       30.18F
COLUMBIA       MOSUNNY   87  58  37 VRB6      30.16F
SUMTER         MOSUNNY   84  63  48 SW6       30.16F
FLORENCE       SUNNY     85  65  51 SW8       30.18F
MYRTLE BEACH   MOSUNNY   82  63  51 S14       30.21F
N MYRTLE BEACH SUNNY     80  67  64 S13       30.19F

$$

GAZ063-065-086>088-099>101-113>116-118-119-134>141-150-261800-
...SOUTHEAST GEORGIA...

CITY           SKY/WX    TMP DP  RH WIND       PRES   REMARKS
SAVANNAH ARPT  MOSUNNY   84  63  49 VRB7      30.19F
HUNTER AAF     MOSUNNY   83  66  55 S5        30.17F
FORT STEWART   MOSUNNY   84  62  47 CALM      30.16F
STATESBORO     PTSUNNY   85  64  47 CALM      30.18F
SYLVANIA       PTSUNNY   86  62  43 SW5       30.19F
CLAXTON        PTSUNNY   84  64  49 S3        30.18F

...CSRA...CENTRAL AND FAR SOUTHEAST GEORGIA...

CITY           SKY/WX    TMP DP  RH WIND       PRES   REMARKS
THOMSON        MOSUNNY   88  67  49 S7        30.21F HX  91
AUGUSTA-BUSH   SUNNY     86  62  44 SW7       30.16F
AUGUSTA-DANIEL MOSUNNY   88  61  40 S9        30.18F
SWAINSBORO     FAIR      86  61  42 S8        30.19F
VIDALIA        SUNNY     84  59  42 S6        30.18F
EASTMAN        FAIR      85  63  46 S5        30.19F
HAZLEHURST     FAIR      87  58  37 CALM      30.16F
ALMA           SUNNY     85  61  44 S3        30.18F
WAYCROSS       PTSUNNY   85  63  47 S3        30.17F
JESUP          PTSUNNY   81  61  50 E5        30.18F
BAXLEY         PTSUNNY   88  59  37 CALM      30.17F
BRUNSWICK      SUNNY     88  61  40 N3        30.19S
SAINT SIMONS   SUNNY     81  65  58 SE10      30.18F

$$

SCZ027-028-034-036>038-045-046-048>050-GAZ119-141-261800-
...LAKE AND SUPPLEMENTAL COASTAL OBSERVATIONS...

STATION/POSITION TIME  TEMP    WIND        PRES    WAVE   SWELL
                       AIR SEA DIR/SP/G            HT/PER HT/PER/DIR
                 (UTC) (F)     (DEG/KT/KT) (MB)    (FT/S) (FT/S/D)
WINYAH BAY       1645   79     160/ 11     1022.0S
LAKE MURRAY      1600   81     150/  3/  4 1021.7S
ACE BASIN NERRS  1600   82     140/  2     1023.0
FORT PULASKI     1700   79 76  110/  8/ 11 1022.8F
SAPELO ISLAND    1700   84      80/  6     1022.0F

$$

ANZ835-935-AMZ111-154-330-350-352-354-370-450-454-472-261800-
...C-MAN AND BUOY OBSERVATIONS...

STATION/POSITION TIME  TEMP    WIND        PRES    WAVE   SWELL
                       AIR SEA DIR/SP/G            HT/PER HT/PER/DIR
                 (UTC) (F)     (DEG/KT/KT) (MB)    (FT/S) (FT/S/D)
BUOY 41004       1650   77 78  250/  2/  4 1022.7F   2/ 9   2/ 9
BUOY 41008       1650   76 78  110/  4/  6 1022.6F   2/ 9   2/110/ 9
FOLLY BEACH CMAN 1700   78     190/  7/  9 1022.9F
CAPERS NEARSHORE 1708   76 77  210/  8/  8 1022.7F
FRIPP NEARSHORE  1708   77 77  170/  6/  8 1022.1F


STATION/POSITION TIME  TEMP    WIND        PRES    WAVE   SWELL
                       AIR SEA DIR/SP/G            HT/PER HT/PER/DIR
                 (UTC) (F)     (DEG/KT/KT) (MB)    (FT/S) (FT/S/D)
5E ST. MARYS GA  NOT AVBL
FRYING PAN BUOY  1700   77 77  190/  4/  6 1022.5F
BUOY 41025       1650   73 71  230/  6/  8 1022.5F   2/ 8   2/130/ 8
CAPE LOOKOUT NC  1700   78     220/  7/ 10 1022.3F
BUOY 41002       1650   75 78   60/ 12/ 16 1022.5F   2/ 8   2/ 90/ 8
BUOY 41010       1620   76 78   50/ 10/ 12 1021.2R
ST AUGUSTINE FL  1700   76 79   90/  8/  9 1022.5F


$$




USA.gov is the U.S. government's official web portal to all federal, state and local government web resources and services.